When you browse on this site, cookies collect data to enhance your experience and personalize the content and advertising you see.
Visit our Privacy Policy to learn more. By continuing to use the site, you agree to this use of cookies and data.
  • In Latvia
  • List of Countries
  • For 7 days
  • Water Temperature
  • Satellite Maps
  • Weather Map
  • Weather Widgets
  • user-avatar
    Login

    Hourly Weather Hrazdan

    Today, 17 February, Sunday

    Time Temperature Precipitation Wind Pressure Humidity
    00:00 -6°C° 0.1 mm 2 mps 607 mmHg 85%
    01:00 -6°C° 0.1 mm 2 mps 607 mmHg 85%
    02:00 -8°C° 0.1 mm 3 mps 607 mmHg 84%
    03:00 -8°C° 0 mm 3 mps 606 mmHg 84%
    04:00 -8°C° 0.1 mm 3 mps 606 mmHg 83%
    05:00 -9°C° 0.1 mm 3 mps 606 mmHg 83%
    06:00 -8°C° 0.1 mm 2 mps 606 mmHg 83%
    07:00 -9°C° 0 mm 3 mps 607 mmHg 82%
    08:00 -8°C° 0 mm 3 mps 607 mmHg 81%
    09:00 -7°C° 0 mm 3 mps 607 mmHg 80%
    10:00 -6°C° 0 mm 3 mps 607 mmHg 77%
    11:00 -5°C° 0 mm 3 mps 608 mmHg 74%
    12:00 -5°C° 0 mm 3 mps 608 mmHg 71%
    13:00 -4°C° 0 mm 3 mps 608 mmHg 71%
    14:00 -4°C° 0 mm 3 mps 608 mmHg 71%
    15:00 -4°C° 0 mm 3 mps 608 mmHg 71%
    16:00 -5°C° 0 mm 3 mps 608 mmHg 73%
    17:00 -5°C° 0 mm 2 mps 607 mmHg 74%
    18:00 -7°C° 0 mm 2 mps 607 mmHg 75%
    19:00 -7°C° 0 mm 2 mps 607 mmHg 75%
    20:00 -8°C° 0 mm 2 mps 607 mmHg 75%
    21:00 -8°C° 0 mm 2 mps 608 mmHg 75%
    22:00 -8°C° 0 mm 2 mps 608 mmHg 75%
    23:00 -8°C° 0 mm 2 mps 607 mmHg 76%

    Tomorrow, 18 February, Monday

    Time Temperature Precipitation Wind Pressure Humidity
    00:00 -8°C° 0 mm 2 mps 607 mmHg 76%
    01:00 -9°C° 0 mm 2 mps 607 mmHg 77%
    02:00 -9°C° 0 mm 2 mps 607 mmHg 77%
    03:00 -9°C° 0 mm 2 mps 607 mmHg 77%
    04:00 -9°C° 0 mm 2 mps 606 mmHg 78%
    05:00 -10°C° 0 mm 3 mps 606 mmHg 78%
    06:00 -12°C° 0 mm 3 mps 606 mmHg 78%
    07:00 -9°C° 0 mm 3 mps 606 mmHg 77%
    08:00 -8°C° 0 mm 3 mps 606 mmHg 77%
    09:00 -7°C° 0 mm 3 mps 606 mmHg 77%
    10:00 -7°C° 0 mm 4 mps 606 mmHg 76%
    11:00 -5°C° 0 mm 4 mps 606 mmHg 75%
    12:00 -4°C° 0 mm 4 mps 605 mmHg 73%
    13:00 -4°C° 0 mm 4 mps 605 mmHg 73%
    14:00 -3°C° 0 mm 4 mps 605 mmHg 72%
    15:00 -3°C° 0 mm 4 mps 604 mmHg 72%
    16:00 -4°C° 0 mm 4 mps 604 mmHg 74%
    17:00 -5°C° 0 mm 4 mps 603 mmHg 75%
    18:00 -6°C° 0 mm 3 mps 603 mmHg 77%
    19:00 -7°C° 0 mm 3 mps 603 mmHg 77%
    20:00 -7°C° 0 mm 3 mps 603 mmHg 77%
    21:00 -7°C° 0 mm 3 mps 603 mmHg 78%
    22:00 -8°C° 0 mm 3 mps 603 mmHg 78%
    23:00 -8°C° 0 mm 3 mps 603 mmHg 78%

    Day after tomorrow, 19 February, Tuesday

    Time Temperature Precipitation Wind Pressure Humidity
    00:00 -9°C° 0 mm 3 mps 603 mmHg 77%
    01:00 -8°C° 0 mm 2 mps 603 mmHg 78%
    02:00 -8°C° 0 mm 2 mps 603 mmHg 78%
    03:00 -8°C° 0 mm 2 mps 603 mmHg 78%
    04:00 -8°C° 0 mm 2 mps 603 mmHg 78%
    05:00 -9°C° 0 mm 2 mps 603 mmHg 78%
    06:00 -9°C° 0 mm 2 mps 604 mmHg 79%
    07:00 -8°C° 0 mm 2 mps 604 mmHg 77%
    08:00 -7°C° 0 mm 2 mps 605 mmHg 76%
    09:00 -6°C° 0 mm 2 mps 606 mmHg 75%
    10:00 -5°C° 0 mm 2 mps 607 mmHg 71%
    11:00 -5°C° 0 mm 3 mps 607 mmHg 66%
    12:00 -4°C° 0 mm 3 mps 607 mmHg 62%
    13:00 -3°C° 0 mm 2 mps 608 mmHg 61%
    14:00 -3°C° 0 mm 2 mps 608 mmHg 60%
    15:00 -3°C° 0 mm 2 mps 608 mmHg 60%
    16:00 -4°C° 0 mm 2 mps 608 mmHg 61%
    17:00 -4°C° 0 mm 1 mps 608 mmHg 63%
    18:00 -7°C° 0 mm 1 mps 608 mmHg 65%
    19:00 -8°C° 0 mm 1 mps 608 mmHg 66%
    20:00 -8°C° 0 mm 1 mps 609 mmHg 68%
    21:00 -9°C° 0 mm 1 mps 609 mmHg 70%
    22:00 -9°C° 0 mm 1 mps 610 mmHg 71%
    23:00 -9°C° 0 mm 1 mps 610 mmHg 72%

    20 February, Wednesday

    Time Temperature Precipitation Wind Pressure Humidity
    00:00 -9°C° 0 mm 1 mps 610 mmHg 72%
    01:00 -9°C° 0 mm 1 mps 610 mmHg 72%
    02:00 -10°C° 0 mm 1 mps 610 mmHg 71%
    03:00 -10°C° 0 mm 1 mps 610 mmHg 70%
    04:00 -10°C° 0 mm 1 mps 611 mmHg 67%
    05:00 -9°C° 0 mm 1 mps 611 mmHg 64%
    06:00 -9°C° 0 mm 1 mps 611 mmHg 61%
    07:00 -8°C° 0 mm 1 mps 611 mmHg 61%
    08:00 -6°C° 0 mm 1 mps 612 mmHg 61%
    09:00 -4°C° 0 mm 1 mps 613 mmHg 61%
    10:00 -3°C° 0 mm 1 mps 613 mmHg 59%
    11:00 -1°C° 0 mm 1 mps 613 mmHg 57%
    12:00 0°C° 0 mm 1 mps 614 mmHg 56%
    13:00 0°C° 0 mm 1 mps 613 mmHg 57%
    14:00 +1°C° 0 mm 1 mps 613 mmHg 59%
    15:00 +1°C° 0 mm 1 mps 613 mmHg 60%
    16:00 -1°C° 0 mm 1 mps 612 mmHg 61%
    17:00 -3°C° 0 mm 1 mps 611 mmHg 61%
    18:00 -6°C° 0 mm 1 mps 611 mmHg 61%
    19:00 -7°C° 0 mm 1 mps 611 mmHg 58%
    20:00 -7°C° 0 mm 1 mps 611 mmHg 56%
    21:00 -8°C° 0 mm 1 mps 611 mmHg 53%
    22:00 -8°C° 0 mm 1 mps 611 mmHg 50%
    23:00 -8°C° 0 mm 1 mps 611 mmHg 48%

    21 February, Thursday

    Time Temperature Precipitation Wind Pressure Humidity
    00:00 -8°C° 0 mm 1 mps 611 mmHg 46%
    01:00 -8°C° 0 mm 1 mps 611 mmHg 46%
    02:00 -9°C° 0 mm 2 mps 610 mmHg 47%
    03:00 -9°C° 0 mm 2 mps 610 mmHg 48%
    04:00 -9°C° 0 mm 2 mps 610 mmHg 50%
    05:00 -9°C° 0 mm 2 mps 610 mmHg 53%
    06:00 -9°C° 0 mm 2 mps 610 mmHg 55%
    07:00 -8°C° 0 mm 2 mps 610 mmHg 58%
    08:00 -7°C° 0 mm 2 mps 611 mmHg 60%
    09:00 -5°C° 0 mm 2 mps 611 mmHg 63%
    10:00 -4°C° 0 mm 2 mps 611 mmHg 61%
    11:00 -3°C° 0 mm 2 mps 611 mmHg 59%
    12:00 -2°C° 0 mm 2 mps 611 mmHg 57%
    13:00 -2°C° 0 mm 2 mps 610 mmHg 57%
    14:00 -2°C° 0 mm 2 mps 610 mmHg 57%
    15:00 -2°C° 0 mm 2 mps 610 mmHg 58%
    16:00 -3°C° 0 mm 2 mps 609 mmHg 57%
    17:00 -5°C° 0 mm 2 mps 609 mmHg 57%
    18:00 -7°C° 0 mm 2 mps 608 mmHg 57%
    19:00 -7°C° 0 mm 2 mps 609 mmHg 54%
    20:00 -8°C° 0 mm 2 mps 609 mmHg 52%
    21:00 -8°C° 0 mm 2 mps 609 mmHg 49%
    22:00 -8°C° 0 mm 2 mps 609 mmHg 50%
    23:00 -8°C° 0 mm 2 mps 609 mmHg 51%

    22 February, Friday

    Time Temperature Precipitation Wind Pressure Humidity
    00:00 -9°C° 0 mm 2 mps 609 mmHg 51%
    01:00 -9°C° 0 mm 2 mps 609 mmHg 55%
    02:00 -9°C° 0 mm 2 mps 609 mmHg 59%
    03:00 -9°C° 0 mm 2 mps 609 mmHg 63%
    04:00 -9°C° 0 mm 2 mps 609 mmHg 66%
    05:00 -9°C° 0 mm 2 mps 609 mmHg 69%
    06:00 -9°C° 0 mm 2 mps 609 mmHg 71%
    07:00 -8°C° 0 mm 2 mps 609 mmHg 72%
    08:00 -7°C° 0 mm 2 mps 610 mmHg 72%
    09:00 -7°C° 0 mm 3 mps 610 mmHg 73%
    10:00 -6°C° 0 mm 3 mps 610 mmHg 71%
    11:00 -5°C° 0 mm 3 mps 610 mmHg 69%
    12:00 -4°C° 0 mm 3 mps 610 mmHg 66%
    13:00 -4°C° 0 mm 3 mps 609 mmHg 66%
    14:00 -4°C° 0 mm 3 mps 609 mmHg 66%
    15:00 -2°C° 0 mm 3 mps 609 mmHg 66%
    16:00 -5°C° 0 mm 3 mps 608 mmHg 68%
    17:00 -6°C° 0 mm 2 mps 608 mmHg 70%
    18:00 -7°C° 0 mm 2 mps 607 mmHg 71%
    19:00 -8°C° 0 mm 2 mps 608 mmHg 70%
    20:00 -8°C° 0 mm 2 mps 608 mmHg 69%
    21:00 -8°C° 0 mm 2 mps 608 mmHg 68%
    22:00 -8°C° 0 mm 2 mps 608 mmHg 69%
    23:00 -8°C° 0 mm 2 mps 608 mmHg 69%
    Show more